Weather History for Jacksonville NAS, FL

Change the Weather History Date:

Sunday, March 16, 2014

  Actual Average Record
Temperature  
Mean Temperature 74 °F -  
Max Temperature 86 °F 72 °F 87 °F (2002)
Min Temperature 64 °F 54 °F 37 °F (2005)
Cooling Degree Days 9    
Growing Degree Days 24 (Base 50)    
Moisture  
Dew Point 57 °F    
Average Humidity 63    
Maximum Humidity 78    
Minimum Humidity 34    
Precipitation  
Precipitation 0.00 in - - ()
Sea Level Pressure  
Sea Level Pressure 29.86 in    
Wind  
Wind Speed 11 mph (South)    
Max Wind Speed 24 mph    
Max Gust Speed 32 mph    
Visibility 10 miles    
Events      
Averages and records for this station are not official NWS values.
T = Trace of Precipitation, MM = Missing Value Source: NWS Daily Summary

Daily Weather History Graph

Daily Weather History Graph

Search for Another Location

Airport:

Trip Planner

Search our weather history database for the weather conditions in past years. The results will help you decide how hot, cold, wet, or windy it might be!

Date:

Astronomy

Mar. 16, 2014 Rise Set
Actual Time 7:35 AM EDT 7:35 PM EDT
Civil Twilight 7:11 AM EDT 7:59 PM EDT
Nautical Twilight 6:43 AM EDT 8:27 PM EDT
Astronomical Twilight 6:15 AM EDT 8:55 PM EDT
Moon 7:48 PM EDT (3/16) 7:19 AM EDT (3/16)
Length of Visible Light 12h 48m
Length of Day
12h 00m
Full, 100% of the Moon is Illuminated
Mar 16
Full
Mar 16
Full
Mar 23
Last Quarter
Mar 30
New
Apr 7
First Quarter

Hourly Weather History & Observations

Time (EDT) Temp. Heat Index Dew Point Humidity Pressure Visibility Wind Dir Wind Speed Gust Speed Precip Events Conditions
12:53 AM 66.0 °F - 55.0 °F 68% 30.03 in 10.0 mi SSE 5.8 mph - N/A   Scattered Clouds
1:53 AM 64.9 °F - 55.9 °F 73% 30.02 in 10.0 mi SSE 5.8 mph - N/A   Scattered Clouds
2:53 AM 64.9 °F - 55.9 °F 73% 30.01 in 10.0 mi South 6.9 mph - N/A   Scattered Clouds
3:53 AM 64.9 °F - 55.9 °F 73% 29.99 in 10.0 mi SSE 6.9 mph - N/A   Partly Cloudy
4:53 AM 64.0 °F - 55.9 °F 75% 29.98 in 10.0 mi SSE 6.9 mph - N/A   Partly Cloudy
5:53 AM 64.0 °F - 55.9 °F 75% 29.96 in 10.0 mi SSE 8.1 mph - N/A   Scattered Clouds
6:53 AM 64.0 °F - 57.0 °F 78% 29.94 in 10.0 mi South 11.5 mph - N/A   Mostly Cloudy
7:53 AM 64.9 °F - 57.9 °F 78% 29.92 in 10.0 mi South 16.1 mph - N/A   Mostly Cloudy
8:53 AM 66.9 °F - 57.9 °F 73% 29.90 in 10.0 mi South 16.1 mph - N/A   Mostly Cloudy
9:53 AM 69.1 °F - 59.0 °F 70% 29.90 in 10.0 mi South 20.7 mph 28.8 mph N/A   Mostly Cloudy
10:53 AM 73.0 °F - 57.9 °F 59% 29.88 in 10.0 mi South 19.6 mph 27.6 mph N/A   Mostly Cloudy
11:53 AM 75.9 °F - 57.0 °F 52% 29.87 in 10.0 mi South 21.9 mph 31.1 mph N/A   Overcast
12:53 PM 79.0 °F - 57.9 °F 48% 29.83 in 10.0 mi South 18.4 mph 27.6 mph N/A   Overcast
1:53 PM 79.0 °F - 57.0 °F 47% 29.81 in 10.0 mi South 19.6 mph - N/A   Overcast
2:53 PM 84.0 °F 82.9 °F 55.0 °F 37% 29.77 in 10.0 mi SSW 17.3 mph 29.9 mph N/A   Mostly Cloudy
3:53 PM 84.9 °F 83.3 °F 54.0 °F 34% 29.73 in 10.0 mi SSW 18.4 mph 28.8 mph N/A   Mostly Cloudy
4:53 PM 84.0 °F 82.6 °F 54.0 °F 35% 29.71 in 10.0 mi SSW 15.0 mph 24.2 mph N/A   Overcast
5:53 PM 82.0 °F 81.6 °F 55.9 °F 41% 29.74 in 10.0 mi West 16.1 mph - N/A   Overcast
6:24 PM 73.9 °F - 55.9 °F 53% 29.77 in 10.0 mi NNW 24.2 mph 32.2 mph N/A   Overcast
6:53 PM 71.1 °F - 55.9 °F 59% 29.78 in 10.0 mi NW 21.9 mph 31.1 mph N/A   Overcast
7:53 PM 68.0 °F - 57.0 °F 68% 29.81 in 10.0 mi NNW 12.7 mph - 0.00 in   Overcast
8:53 PM 66.9 °F - 57.9 °F 73% 29.80 in 10.0 mi NNW 9.2 mph - N/A   Mostly Cloudy
9:53 PM 68.0 °F - 57.9 °F 70% 29.80 in 10.0 mi NNW 3.5 mph - N/A   Mostly Cloudy
10:53 PM 66.9 °F - 59.0 °F 76% 29.81 in 10.0 mi SE 4.6 mph - N/A   Mostly Cloudy
11:53 PM 66.0 °F - 59.0 °F 78% 29.79 in 10.0 mi ESE 5.8 mph - N/A   Mostly Cloudy